Satellite-Ground Cal/Val Site Overpasses Predictions

Prediction of Satellite NPP Overpassing Cal/Val Site: Antarctic Dome C

Ground Cal/Val Site Location: Latitude: -75.10, Longitude: 123.35; Satellite-Ground Site NADIR distance within 100 km.

Table of predicted overpasses for the next 14.0 days since TLE Epoch: 3/23/2024
Interval Starting Time Ending Time Minimum Distance Time Minimum Distance (km)
1 03/23/2024 07:38:23 03/23/2024 07:38:49 03/23/2024 07:38:36 39.16
2 03/24/2024 07:19:37 03/24/2024 07:19:58 03/24/2024 07:19:48 70.66
3 03/26/2024 15:01:55 03/26/2024 15:02:18 03/26/2024 15:02:06 59.36
4 03/27/2024 14:43:04 03/27/2024 14:43:30 03/27/2024 14:43:17 49.84
5 03/28/2024 07:44:47 03/28/2024 07:45:06 03/28/2024 07:44:57 74.94
6 03/29/2024 07:25:54 03/29/2024 07:26:21 03/29/2024 07:26:08 32.79
7 03/31/2024 15:08:23 03/31/2024 15:08:29 03/31/2024 15:08:26 97.67
8 04/01/2024 14:49:23 04/01/2024 14:49:52 04/01/2024 14:49:37 13.72
